time_stamp(utc),avg(mph),gust(mph),direction(deg),12m_air_temp(f),sonic_u(cm/s),sonic_v(cm/s),sonic_w(cm/s),pressure,2m_air_temp(f),pyranometer(W/m^2)
"2021-08-16 00:02:39+00",7.9,8.9,,73.5,351,37,16,1020.6,73.6,0
"2021-08-16 00:07:39+00",6.8,7.8,,73.5,303,22,-5,1020.59,73.5,0
"2021-08-16 00:12:39+00",7.6,8.6,,73.5,328,22,-27,1020.62,73.4,0
"2021-08-16 00:17:39+00",7.2,8.2,,73.4,303,-12,-11,1020.67,73.3,0
"2021-08-16 00:22:39+00",5.7,6.7,,73.4,227,-42,-5,1020.72,73.2,0
"2021-08-16 00:27:39+00",6.6,7.6,,73.5,304,-8,-16,1020.75,73.1,0
"2021-08-16 00:32:39+00",6.7,7.7,,73.5,301,9,-22,1020.72,73.1,0
"2021-08-16 00:37:39+00",6.3,7.3,,73.5,291,-24,-20,1020.88,73.1,0
"2021-08-16 00:42:39+00",6.6,7.6,,73.5,282,-37,-21,1020.91,73,0
"2021-08-16 00:47:39+00",7.7,8.7,,73.5,329,-26,-36,1020.98,72.9,0
"2021-08-16 00:52:39+00",8.3,9.3,,73.6,362,-81,-38,1021.01,72.9,0
"2021-08-16 00:57:39+00",7.4,8.4,,73.5,332,-46,-31,1020.94,72.9,0
"2021-08-16 01:02:39+00",7.7,8.7,,73.5,335,-55,-33,1020.91,72.9,0
"2021-08-16 01:07:39+00",7.6,8.6,,73.4,338,5,-50,1020.9,72.9,0
"2021-08-16 01:12:39+00",8.3,9.3,,73.5,373,-41,-16,1020.8,72.9,0
"2021-08-16 01:17:39+00",9.2,11.2,,73.6,400,-58,-47,1020.88,73,0
"2021-08-16 01:22:39+00",9.3,10.3,,73.6,403,-28,-44,1020.83,73,0
"2021-08-16 01:27:39+00",8.1,9.1,,73.6,346,-44,-37,1020.92,73.1,0
"2021-08-16 01:32:39+00",7.6,8.6,,73.6,297,-46,-57,1021.03,73.1,0
"2021-08-16 01:37:39+00",7.9,8.9,,73.6,310,-62,-52,1020.96,73.1,0
"2021-08-16 01:42:39+00",9.2,11.2,,73.7,385,-35,-34,1020.96,73.2,0
"2021-08-16 01:47:39+00",8.1,10.1,,73.7,328,-37,-42,1021,73.3,0
"2021-08-16 01:52:39+00",8.5,9.5,,73.7,317,-102,-60,1020.97,73.3,0
"2021-08-16 01:57:39+00",9.4,10.4,,73.7,367,-46,-63,1021.13,73.2,0
"2021-08-16 02:02:39+00",8.7,9.7,,73.7,340,-31,-67,1021.07,73.3,0
"2021-08-16 02:07:39+00",7.3,8.3,,73.7,282,22,-54,1021.16,73.3,0
"2021-08-16 02:12:39+00",8.2,9.2,,73.7,308,-26,-63,1021.17,73.2,0
"2021-08-16 02:17:39+00",8.7,10.7,,73.6,340,-29,-66,1021.16,73.2,0
"2021-08-16 02:22:39+00",8.6,9.6,,73.6,334,-42,-70,1021.18,73.1,0
"2021-08-16 02:27:39+00",7.8,9.8,,73.6,320,-64,-47,1021.22,73.1,0
"2021-08-16 02:32:39+00",7.9,9.9,,73.6,316,-53,-44,1021.26,73.1,0
"2021-08-16 02:37:39+00",8.6,9.6,,73.6,323,-75,-65,1021.28,73.1,0
"2021-08-16 02:42:39+00",8.5,9.5,,73.7,300,-158,-53,1021.4,73.1,0
"2021-08-16 02:47:39+00",6.2,7.2,,73.6,197,-104,-51,1021.54,73.1,0
"2021-08-16 02:52:39+00",6.6,7.6,,73.6,225,-102,-59,1021.5,73,0
"2021-08-16 02:57:39+00",8.1,9.1,,73.7,271,-114,-73,1021.43,73.1,0
"2021-08-16 03:02:39+00",8.3,9.3,,73.8,279,-113,-76,1021.42,73.1,0
"2021-08-16 03:07:39+00",6.5,7.5,,73.7,225,-139,-32,1021.4,73,0
"2021-08-16 03:12:39+00",6.3,6.3,,73.6,230,-117,-40,1021.37,73,0
"2021-08-16 03:17:39+00",6.0,7.0,,73.6,213,-94,-46,1021.33,72.9,0
"2021-08-16 03:22:39+00",5.4,5.4,,73.6,168,-98,-42,1021.34,72.9,0
"2021-08-16 03:27:39+00",5.4,6.4,,73.6,192,-92,-37,1021.43,72.9,0
"2021-08-16 03:32:39+00",6.3,7.3,,73.5,225,-97,-47,1021.3,72.7,0
"2021-08-16 03:37:39+00",7.4,8.4,,73.6,273,-123,-56,1021.31,72.7,0
"2021-08-16 03:42:39+00",7.0,8.0,,73.7,232,-121,-58,1021.47,72.8,0
"2021-08-16 03:47:39+00",7.9,8.9,,73.8,289,-148,-57,1021.36,72.8,0
"2021-08-16 03:52:39+00",6.0,7.0,,73.7,197,-118,-39,1021.5,72.8,0
"2021-08-16 03:57:39+00",6.8,7.8,,73.7,237,-118,-51,1021.5,72.8,0
"2021-08-16 04:02:39+00",8.6,9.6,,73.8,323,-159,-42,1021.41,72.8,0
"2021-08-16 04:07:39+00",7.4,8.4,,73.8,243,-144,-59,1021.5,72.9,0
"2021-08-16 04:12:39+00",6.6,7.6,,73.8,222,-119,-49,1021.5,72.9,0
"2021-08-16 04:17:39+00",7.4,8.4,,73.8,223,-207,-46,1021.58,72.9,0
"2021-08-16 04:22:39+00",6.1,7.1,,73.8,178,-155,-45,1021.72,72.9,0
"2021-08-16 04:27:39+00",7.0,8.0,,73.7,216,-137,-69,1021.65,72.9,0
"2021-08-16 04:32:39+00",6.9,7.9,,73.8,244,-92,-55,1021.59,72.8,0
"2021-08-16 04:37:39+00",7.4,8.4,,73.8,266,-107,-59,1021.55,72.9,0
"2021-08-16 04:42:39+00",7.1,8.1,,73.8,261,-80,-56,1021.5,72.9,0
"2021-08-16 04:47:39+00",6.4,7.4,,73.8,221,-74,-51,1021.51,72.8,0
"2021-08-16 04:52:39+00",6.3,7.3,,73.7,210,-98,-55,1021.51,72.8,0
"2021-08-16 04:57:39+00",7.0,8.0,,73.8,235,-102,-58,1021.5,72.8,0
"2021-08-16 05:02:39+00",7.4,8.4,,73.8,243,-118,-68,1021.48,72.7,0
"2021-08-16 05:07:39+00",7.2,9.2,,73.8,241,-94,-57,1021.54,72.8,0
"2021-08-16 05:12:39+00",7.5,8.5,,73.7,256,-96,-60,1021.48,72.7,0
"2021-08-16 05:17:39+00",6.4,7.4,,73.7,223,-85,-56,1021.42,72.8,0
"2021-08-16 05:22:39+00",6.5,7.5,,73.6,276,-43,-18,1021.39,72.8,0
"2021-08-16 05:27:39+00",6.2,7.2,,73.7,244,-24,-37,1021.37,72.8,0
"2021-08-16 05:32:39+00",6.8,7.8,,73.7,260,-34,-39,1021.33,72.8,0
"2021-08-16 05:37:39+00",6.4,7.4,,73.6,236,-38,-41,1021.31,72.8,0
"2021-08-16 05:42:39+00",5.6,6.6,,73.7,207,-17,-33,1021.33,72.7,0
"2021-08-16 05:47:39+00",4.8,5.8,,73.7,179,-64,-25,1021.32,72.7,0
"2021-08-16 05:52:39+00",5.3,6.3,,73.6,173,-59,-48,1021.4,72.7,0
"2021-08-16 05:57:39+00",5.9,5.9,,73.8,186,-73,-53,1021.39,72.7,0
"2021-08-16 06:02:39+00",5.0,6.0,,73.8,171,-38,-41,1021.47,72.7,0
"2021-08-16 06:07:39+00",4.1,5.1,,73.8,160,-47,-19,1021.49,72.8,0
"2021-08-16 06:12:39+00",3.6,4.6,,73.9,123,-45,-18,1021.54,73,0
"2021-08-16 06:17:39+00",3.5,4.5,,73.9,114,-67,-27,1021.53,73.1,0
"2021-08-16 06:22:39+00",4.6,5.6,,73.9,172,-82,-21,1021.4,73.2,0
"2021-08-16 06:27:39+00",5.9,6.9,,73.9,227,-82,-35,1021.37,73.2,0
"2021-08-16 06:32:39+00",6.8,7.8,,74,271,-73,-38,1021.35,73.3,0
"2021-08-16 06:37:39+00",6.2,7.2,,73.9,247,-116,-23,1021.22,73.3,0
"2021-08-16 06:42:39+00",6.3,7.3,,73.9,262,-78,-20,1021.15,73.3,0
"2021-08-16 06:47:39+00",8.0,9.0,,73.9,340,-85,-20,1021.03,73.3,0
"2021-08-16 06:52:39+00",7.8,8.8,,73.8,346,-54,-13,1020.9,73.3,0
"2021-08-16 06:57:39+00",7.5,8.5,,73.8,320,-75,-26,1021,73.3,0
"2021-08-16 07:02:39+00",7.1,8.1,,73.8,299,-71,-24,1020.93,73.3,0
"2021-08-16 07:07:39+00",7.4,8.4,,73.7,321,-27,-30,1020.85,73.3,0
"2021-08-16 07:12:39+00",7.4,8.4,,73.8,309,-70,-32,1020.82,73.3,0
"2021-08-16 07:17:39+00",6.9,7.9,,73.8,286,-79,-30,1020.85,73.2,0
"2021-08-16 07:22:39+00",6.7,6.7,,73.8,278,-87,-32,1020.81,73.2,0
"2021-08-16 07:27:39+00",6.6,7.6,,73.8,270,-112,-36,1020.88,73.2,0
"2021-08-16 07:32:39+00",5.6,6.6,,73.8,232,-67,-18,1020.84,73.2,0
"2021-08-16 07:37:39+00",5.6,6.6,,73.9,213,-73,-31,1020.73,73.3,0
"2021-08-16 07:42:39+00",5.6,6.6,,73.9,215,-59,-31,1020.77,73.3,0
"2021-08-16 07:47:39+00",5.5,6.5,,73.8,198,-40,-38,1020.72,73.3,0
"2021-08-16 07:52:39+00",5.7,6.7,,73.9,214,-13,-38,1020.7,73.3,0
"2021-08-16 07:57:39+00",5.9,6.9,,73.9,217,9,-34,1020.77,73.3,0
"2021-08-16 08:02:39+00",5.0,6.0,,73.9,181,-7,-35,1020.77,73.4,0
"2021-08-16 08:07:39+00",5.0,6.0,,74,184,-10,-29,1020.79,73.4,0
"2021-08-16 08:12:39+00",6.4,7.4,,74,245,-30,-39,1020.71,73.4,0
"2021-08-16 08:17:39+00",5.9,6.9,,73.9,219,-33,-39,1020.69,73.4,0
"2021-08-16 08:22:39+00",5.3,6.3,,73.9,195,-24,-33,1020.79,73.4,0
"2021-08-16 08:27:39+00",5.7,6.7,,73.9,206,-43,-43,1020.79,73.4,0
"2021-08-16 08:32:39+00",6.9,7.9,,74,267,-63,-45,1020.71,73.4,0
"2021-08-16 08:37:39+00",6.8,7.8,,74,251,-51,-42,1020.71,73.4,0
"2021-08-16 08:42:39+00",6.2,7.2,,74,221,-70,-46,1020.78,73.3,0
"2021-08-16 08:47:39+00",6.2,7.2,,74,216,-60,-43,1020.73,73.4,0
"2021-08-16 08:52:39+00",7.1,8.1,,74,285,-84,-32,1020.74,73.4,0
"2021-08-16 08:57:39+00",6.4,7.4,,74,235,-85,-50,1020.74,73.4,0
"2021-08-16 09:02:39+00",7.0,8.0,,74,271,-45,-37,1020.71,73.4,0
"2021-08-16 09:07:39+00",6.1,7.1,,74,256,-50,-22,1020.81,73.5,0
"2021-08-16 09:12:39+00",5.6,6.6,,74,227,-80,-18,1020.79,73.5,0
"2021-08-16 09:17:39+00",6.4,7.4,,74,274,-69,-20,1020.85,73.5,0
"2021-08-16 09:22:39+00",6.8,7.8,,74,299,-45,-19,1020.96,73.4,0
"2021-08-16 09:27:39+00",6.4,7.4,,74,265,-33,-21,1020.94,73.4,0
"2021-08-16 09:32:39+00",5.8,6.8,,74,246,-26,-22,1021.02,73.4,0
"2021-08-16 09:37:39+00",5.1,6.1,,74,212,-6,-15,1021.22,73.4,0
"2021-08-16 09:42:39+00",5.9,6.9,,74,235,12,-26,1021.23,73.3,0
"2021-08-16 09:47:39+00",5.2,5.2,,73.9,201,39,-27,1021.21,73.3,0
"2021-08-16 09:52:39+00",6.2,7.2,,73.9,244,46,-31,1021.23,73.3,0
"2021-08-16 09:57:39+00",7.6,8.6,,74,310,70,-19,1021.1,73.2,0
"2021-08-16 10:02:39+00",7.7,8.7,,74,326,79,-13,1021.12,73.2,0
"2021-08-16 10:07:39+00",6.5,7.5,,73.9,275,54,-14,1021.17,73.2,0
"2021-08-16 10:12:39+00",6.8,7.8,,73.9,301,35,-14,1021.09,73.2,0
"2021-08-16 10:17:39+00",8.0,9.0,,74,345,37,-11,1021.06,73.3,0
"2021-08-16 10:22:39+00",7.8,8.8,,74,344,66,-4,1021.18,73.3,0
"2021-08-16 10:27:39+00",8.3,9.3,,74.1,361,82,-5,1021.22,73.4,0
"2021-08-16 10:32:39+00",8.8,9.8,,74.1,382,87,-24,1021.26,73.5,0
"2021-08-16 10:37:39+00",8.8,9.8,,74.1,379,101,30,1021.31,73.5,0
"2021-08-16 10:42:39+00",8.0,9.0,,74.2,350,86,20,1021.35,73.6,0
"2021-08-16 10:47:39+00",8.2,9.2,,74.2,363,41,-13,1021.44,73.7,0
"2021-08-16 10:52:39+00",7.5,9.5,,74.3,329,66,34,1021.47,73.8,0
"2021-08-16 10:57:39+00",10.3,11.3,,74.3,460,76,17,1021.35,73.9,0
"2021-08-16 11:02:39+00",7.8,8.8,,74.4,342,54,35,1021.45,74,0
"2021-08-16 11:07:39+00",9.1,10.1,,74.4,409,44,25,1021.43,74.2,0
"2021-08-16 11:12:39+00",10.5,12.5,,74.4,466,64,9,1021.45,74.2,0
"2021-08-16 11:17:39+00",10.1,12.1,,74.5,452,73,23,1021.48,74.4,0
"2021-08-16 11:22:39+00",9.7,10.7,,74.5,437,68,21,1021.55,74.5,0
"2021-08-16 11:27:39+00",9.9,11.9,,74.6,445,66,39,1021.56,74.7,0
"2021-08-16 11:32:39+00",9.8,10.8,,74.7,432,17,26,1021.69,74.8,0
"2021-08-16 11:37:39+00",9.8,10.8,,74.7,438,26,27,1021.72,74.9,0
"2021-08-16 11:42:39+00",8.5,10.5,,74.7,363,54,34,1021.74,74.9,0
"2021-08-16 11:47:39+00",10.4,12.4,,74.7,473,41,19,1021.65,75,0
"2021-08-16 11:52:39+00",12.1,13.1,,74.7,540,101,27,1021.58,75.1,0
"2021-08-16 11:57:39+00",10.7,11.7,,74.7,474,82,19,1021.58,75.2,0
"2021-08-16 12:02:39+00",13.1,14.1,,74.8,575,102,38,1021.56,75.2,0
"2021-08-16 12:07:39+00",10.2,11.2,,74.8,469,29,33,1021.79,75.3,0
"2021-08-16 12:12:39+00",8.6,9.6,,74.9,377,28,47,1021.85,75.4,0
"2021-08-16 12:17:39+00",11.3,13.3,,74.9,508,63,25,1021.84,75.5,0
"2021-08-16 12:22:39+00",9.4,11.4,,74.9,419,-7,34,1021.77,75.6,0
"2021-08-16 12:27:39+00",10.4,12.4,,75,473,59,19,1021.75,75.6,0
"2021-08-16 12:32:39+00",12.1,14.1,,74.9,538,51,26,1021.75,75.7,0
"2021-08-16 12:37:39+00",12.0,13.0,,74.9,531,66,24,1021.8,75.7,0
"2021-08-16 12:42:39+00",11.6,12.6,,75,533,-30,33,1021.9,75.8,0
"2021-08-16 12:47:39+00",13.1,14.1,,75.1,594,58,21,1021.87,75.9,0
"2021-08-16 12:52:39+00",9.7,10.7,,75.2,434,-2,48,1021.81,76,0
"2021-08-16 12:57:39+00",11.5,13.5,,75.2,514,83,36,1021.77,76.2,0
"2021-08-16 13:02:39+00",12.5,13.5,,75.2,554,33,46,1021.78,76.3,0
"2021-08-16 13:07:39+00",12.9,13.9,,75.2,587,-83,16,1021.64,76.3,0
"2021-08-16 13:12:39+00",10.4,13.4,,75.5,479,-40,38,1021.63,76.6,0
"2021-08-16 13:17:39+00",13.7,15.7,,75.6,628,41,38,1021.58,76.9,0
"2021-08-16 13:22:39+00",13.1,15.1,,75.5,593,-81,-9,1021.56,77.2,0
"2021-08-16 13:27:39+00",14.2,16.2,,75.8,632,-99,4,1021.5,77.4,0
"2021-08-16 13:32:39+00",14.3,16.3,,75.7,639,-67,35,1021.57,77.2,0
"2021-08-16 13:37:39+00",14.1,16.1,,75.6,631,-59,11,1021.57,77.3,0
"2021-08-16 13:42:39+00",13.7,16.7,,75.6,613,-111,29,1021.56,77.1,0
"2021-08-16 13:47:39+00",13.3,15.3,,75.6,598,-98,26,1021.83,77,0
"2021-08-16 13:52:39+00",12.8,14.8,,75.6,571,-54,10,1021.77,77.3,0
"2021-08-16 13:57:39+00",12.4,14.4,,75.9,558,-19,49,1021.93,77.6,0
"2021-08-16 14:02:39+00",12.1,13.1,,75.8,537,-50,7,1021.92,77.8,0
"2021-08-16 14:07:39+00",11.5,13.5,,75.9,499,-147,42,1021.96,77.7,0
"2021-08-16 14:12:39+00",13.5,14.5,,75.9,616,-36,18,1022.03,78.5,0
"2021-08-16 14:17:39+00",12.8,13.8,,75.9,580,-114,1,1022.06,78.4,0
"2021-08-16 14:22:39+00",12.8,14.8,,76,570,-42,35,1022.16,78.7,0
"2021-08-16 14:27:39+00",11.3,13.3,,76,490,-123,54,1022.18,78.7,0
"2021-08-16 14:32:39+00",13.8,15.8,,76,628,-17,6,1022.07,78.7,0
"2021-08-16 14:37:39+00",14.3,16.3,,76,649,-25,29,1022.01,78.8,0
"2021-08-16 14:42:39+00",14.2,16.2,,76.2,643,8,20,1022,79.5,0
"2021-08-16 14:47:39+00",14.3,16.3,,76.5,623,-194,26,1021.97,79.7,0
"2021-08-16 14:52:39+00",14.0,16.0,,76.3,628,-87,17,1021.9,79.7,0
"2021-08-16 14:57:39+00",15.8,16.8,,76.2,719,-55,13,1022.05,79.7,0
"2021-08-16 15:02:39+00",13.0,15.0,,76.2,572,-105,76,1022.05,79.9,0
"2021-08-16 15:07:39+00",14.0,16.0,,76.3,628,10,62,1022.14,80.3,0
"2021-08-16 15:12:39+00",14.1,18.1,,76.6,605,-163,50,1022.1,80.8,0
"2021-08-16 15:17:39+00",13.2,16.2,,76.9,594,-88,54,1022.14,80.7,0
"2021-08-16 15:22:39+00",14.2,17.2,,76.4,611,-150,6,1022.16,80,0
"2021-08-16 15:27:39+00",12.5,14.5,,76.5,570,0,49,1022.24,79.5,0
"2021-08-16 15:32:39+00",14.3,16.3,,76.2,637,-110,5,1022.31,79.5,0
"2021-08-16 15:37:39+00",13.8,15.8,,76.5,609,-184,21,1022.32,79.6,0
"2021-08-16 15:42:39+00",12.0,14.0,,76.5,530,-70,32,1022.41,80.2,0
"2021-08-16 15:47:39+00",13.3,15.3,,76.5,611,-26,31,1022.42,80.5,0
"2021-08-16 15:52:39+00",12.7,14.7,,76.5,564,-23,28,1022.43,80.1,0
"2021-08-16 15:57:39+00",13.3,15.3,,76.2,612,-36,7,1022.48,80.2,0
"2021-08-16 16:02:39+00",11.9,12.9,,76.6,534,-31,53,1022.5,80.5,0
"2021-08-16 16:07:39+00",13.5,14.5,,76.5,601,29,27,1022.39,80.5,0
"2021-08-16 16:12:39+00",12.6,14.6,,76.3,574,32,6,1022.43,80.8,0
"2021-08-16 16:17:39+00",12.8,14.8,,76.3,573,-65,7,1022.44,80.2,0
"2021-08-16 16:22:39+00",15.0,16.0,,76.2,678,-15,8,1022.33,80.5,0
"2021-08-16 16:27:39+00",13.4,14.4,,76.8,601,49,18,1022.22,80.5,0
"2021-08-16 16:32:39+00",13.1,15.1,,76.4,600,-18,16,1022.22,80.3,0
"2021-08-16 16:37:39+00",14.5,16.5,,76.7,659,55,6,1022.13,80.6,0
"2021-08-16 16:42:39+00",14.8,16.8,,76.6,666,91,24,1022.15,81,0
"2021-08-16 16:47:39+00",14.5,17.5,,76.4,652,2,19,1022.16,81.4,0
"2021-08-16 16:52:39+00",13.7,15.7,,76.7,611,14,39,1022.21,81.1,0
"2021-08-16 16:57:39+00",13.7,16.7,,76.5,613,1,48,1022.21,80.8,0
"2021-08-16 17:02:39+00",14.5,17.5,,76.5,657,18,23,1022.26,80.7,0
"2021-08-16 17:07:39+00",13.7,16.7,,76.3,608,-87,10,1022.19,80.2,0
"2021-08-16 17:12:39+00",13.2,16.2,,76.7,586,11,74,1022.2,80.4,0
"2021-08-16 17:17:39+00",15.6,16.6,,76.8,709,52,23,1022.16,80.7,0
"2021-08-16 17:22:39+00",14.0,16.0,,76.5,618,-131,8,1022.14,80.8,0
"2021-08-16 17:27:39+00",15.7,17.7,,76.2,714,-14,8,1022.13,80.6,0
"2021-08-16 17:32:39+00",13.6,15.6,,76.9,612,37,51,1022.03,80.7,0
"2021-08-16 17:37:39+00",13.1,15.1,,76.4,594,-3,51,1021.99,80.1,0
"2021-08-16 17:42:39+00",13.7,16.7,,76.2,614,50,30,1021.94,80.1,0
"2021-08-16 17:47:39+00",15.4,17.4,,76.1,692,-69,9,1022.02,79.9,0
"2021-08-16 17:52:39+00",12.0,13.0,,76.2,537,-92,13,1022.05,79.6,0
"2021-08-16 17:57:39+00",12.8,14.8,,76.5,571,-95,23,1022.14,79.9,0
"2021-08-16 18:02:39+00",13.5,15.5,,76.6,598,-23,58,1022.03,80.1,0
"2021-08-16 18:07:39+00",13.6,15.6,,76.3,614,-70,16,1022.06,80.2,0
"2021-08-16 18:12:39+00",15.1,16.1,,76.3,679,49,32,1022.04,80.5,0
"2021-08-16 18:17:39+00",13.4,14.4,,76.4,600,-104,28,1021.99,80.3,0
"2021-08-16 18:22:39+00",13.2,16.2,,76.7,567,-91,37,1021.95,80.1,0
"2021-08-16 18:27:39+00",14.7,16.7,,76.2,657,8,27,1021.91,79.9,0
"2021-08-16 18:32:39+00",15.1,17.1,,76.3,678,-36,14,1021.72,80.2,0
"2021-08-16 18:37:39+00",14.6,15.6,,76.2,652,-62,10,1021.7,80.2,0
"2021-08-16 18:42:39+00",14.8,16.8,,76.5,659,-42,17,1021.63,80.3,0
"2021-08-16 18:47:39+00",13.4,15.4,,76.6,587,-137,56,1021.59,80.1,0
"2021-08-16 18:52:39+00",14.9,16.9,,76.4,644,-167,28,1021.54,79.5,0
"2021-08-16 18:57:39+00",14.7,15.7,,76.4,654,-114,56,1021.59,79.5,0
"2021-08-16 19:02:39+00",14.5,15.5,,76.4,619,-173,-5,1021.58,79.4,0
"2021-08-16 19:07:39+00",14.4,15.4,,76.7,604,-264,31,1021.52,79.6,0
"2021-08-16 19:12:39+00",15.4,18.4,,77,678,-151,19,1021.44,80.1,0
"2021-08-16 19:17:39+00",14.6,16.6,,76.7,636,-164,-20,1021.4,79.8,0
"2021-08-16 19:22:39+00",15.0,17.0,,76.7,668,-60,38,1021.45,80.1,0
"2021-08-16 19:27:39+00",13.5,15.5,,76.8,594,-112,34,1021.28,79.9,0
"2021-08-16 19:32:39+00",17.0,19.0,,76.6,766,-160,4,1021.21,79.6,0
"2021-08-16 19:37:39+00",12.7,15.7,,76.7,542,-189,75,1021.13,79.5,0
"2021-08-16 19:42:39+00",14.4,17.4,,76.7,627,-181,27,1021.08,79.3,0
"2021-08-16 19:47:39+00",15.9,17.9,,76.6,705,-80,40,1021.09,79.5,0
"2021-08-16 19:52:39+00",14.9,16.9,,76.7,660,-172,24,1020.99,79.4,0
"2021-08-16 19:57:39+00",13.7,16.7,,76.6,597,-174,16,1021.03,79,0
"2021-08-16 20:02:39+00",14.8,15.8,,76.3,650,-205,-2,1021.08,78.7,0
"2021-08-16 20:07:39+00",13.6,15.6,,76.5,555,-280,32,1020.98,78.9,0
"2021-08-16 20:12:39+00",15.3,17.3,,76.5,664,-188,3,1021.01,78.4,0
"2021-08-16 20:17:39+00",14.1,16.1,,76.7,617,-151,38,1021.18,78.9,0
"2021-08-16 20:22:39+00",16.0,19.0,,76.7,708,-106,30,1021.05,79.3,0
"2021-08-16 20:27:39+00",15.9,16.9,,76.7,696,-164,7,1021.09,79.5,0
"2021-08-16 20:32:39+00",13.3,16.3,,76.9,585,-126,39,1021.05,79.4,0
"2021-08-16 20:37:39+00",15.3,16.3,,77,675,-167,15,1021.08,79.4,0
"2021-08-16 20:42:39+00",14.0,16.0,,77,610,-138,24,1020.96,79.5,0
"2021-08-16 20:47:39+00",14.8,15.8,,76.6,614,-262,-10,1020.96,79.1,0
"2021-08-16 20:52:39+00",14.1,16.1,,76.7,628,-118,54,1020.93,78.9,0
"2021-08-16 20:57:39+00",15.4,16.4,,76.7,659,-186,7,1021.01,78.9,0
"2021-08-16 21:02:39+00",14.5,16.5,,76.9,609,-243,33,1020.91,78.9,0
"2021-08-16 21:07:39+00",14.0,17.0,,76.9,593,-189,41,1020.92,78.9,0
"2021-08-16 21:12:39+00",15.1,17.1,,76.7,640,-237,19,1020.99,78.6,0
"2021-08-16 21:17:39+00",14.5,17.5,,76.8,593,-284,16,1021.01,78.6,0
"2021-08-16 21:22:39+00",13.1,15.1,,76.9,551,-215,46,1021.02,78.7,0
"2021-08-16 21:27:39+00",13.9,16.9,,76.8,575,-229,40,1020.91,78.7,0
"2021-08-16 21:32:39+00",13.7,15.7,,76.6,574,-202,21,1021.04,78.5,0
"2021-08-16 21:37:39+00",15.7,17.7,,76.5,652,-259,-18,1020.91,78.3,0
"2021-08-16 21:42:39+00",15.4,18.4,,76.3,682,-156,29,1020.9,77.6,0
"2021-08-16 21:47:39+00",15.5,18.5,,76.2,669,-262,13,1020.87,77.1,0
"2021-08-16 21:52:39+00",14.8,16.8,,76.1,628,-254,3,1021.08,76.8,0
"2021-08-16 21:57:39+00",16.9,18.9,,76,725,-223,8,1021.04,76.7,0
"2021-08-16 22:02:39+00",14.8,16.8,,76,612,-267,17,1021,76.5,0
"2021-08-16 22:07:39+00",13.8,15.8,,76,568,-270,25,1021.01,76.5,0
"2021-08-16 22:12:39+00",13.9,15.9,,76,601,-183,22,1021,76.4,0
"2021-08-16 22:17:39+00",14.8,17.8,,76,614,-273,26,1021,76.3,0
"2021-08-16 22:22:39+00",15.2,17.2,,75.9,596,-340,-5,1021.08,76.3,0
"2021-08-16 22:27:39+00",15.1,17.1,,75.9,614,-310,8,1021,76.3,0
"2021-08-16 22:32:39+00",12.8,14.8,,76,493,-301,11,1021.05,76.3,0
"2021-08-16 22:37:39+00",15.5,18.5,,75.9,632,-342,13,1020.99,76.2,0
"2021-08-16 22:42:39+00",15.5,17.5,,75.8,632,-298,9,1020.91,76,0
"2021-08-16 22:47:39+00",16.1,18.1,,75.8,660,-308,7,1020.89,76,0
"2021-08-16 22:52:39+00",15.5,17.5,,75.8,608,-352,17,1020.93,76,0
"2021-08-16 22:57:39+00",14.0,16.0,,75.8,521,-333,28,1020.93,75.9,0
"2021-08-16 23:02:39+00",14.4,15.4,,75.7,535,-366,6,1021.05,75.9,0
"2021-08-16 23:07:39+00",13.7,16.7,,75.7,495,-371,2,1021.04,75.8,0
"2021-08-16 23:12:39+00",15.9,16.9,,75.7,612,-358,1,1021.03,75.7,0
"2021-08-16 23:17:39+00",13.3,15.3,,75.7,498,-317,23,1021.01,75.7,0
"2021-08-16 23:22:39+00",12.5,16.5,,75.6,446,-349,12,1021.04,75.6,0
"2021-08-16 23:27:39+00",14.6,17.6,,75.6,599,-328,14,1020.94,75.4,0
"2021-08-16 23:32:39+00",15.2,17.2,,75.5,587,-341,-2,1020.97,75.4,0
"2021-08-16 23:37:39+00",13.5,15.5,,75.4,525,-315,-28,1020.94,75.2,0
"2021-08-16 23:42:39+00",13.5,15.5,,75.4,532,-287,-12,1021,75.1,0
"2021-08-16 23:47:39+00",14.2,17.2,,75.4,511,-393,-34,1021.05,75.1,0
"2021-08-16 23:52:39+00",14.2,16.2,,75.4,557,-348,-34,1021.1,75.1,0
"2021-08-16 23:57:39+00",12.2,14.2,,75.3,432,-336,-11,1021.24,75.1,0
